GW5060 Weather Reports


Display with metric or nautical units.
time (UTC)temp
F
wind
direction
speed
MPH
gust
MPH
rain 1hr
in
rain 24hr
in
rain mn
in
humidity
%
barometer
mb
20260506122538 65 105 8.0 15.0 0.00 0.67 0.62 84 1008.7
20260506122039 64 168 9.0 16.0 0.00 0.67 0.62 84 1008.7
20260506121548 64 112 9.0 16.0 0.00 0.67 0.62 84 1008.8
20260506121037 64 109 10.0 16.0 0.00 0.67 0.62 85 1008.8
20260506120538 64 88 9.0 17.0 0.00 0.67 0.62 85 1008.8
20260506120050 64 93 10.0 17.0 0.00 0.67 0.62 86 1008.8
20260506115541 64 127 9.0 17.0 0.00 0.67 0.62 87 1008.8
20260506115038 63 120 9.0 17.0 0.00 0.67 0.62 87 1008.8
20260506114547 63 102 11.0 17.0 0.00 0.67 0.62 89 1009.0
20260506114038 63 126 9.0 20.0 0.00 0.67 0.62 89 1008.9
20260506113537 62 130 10.0 20.0 0.00 0.67 0.62 88 1008.9
20260506113045 62 112 9.0 16.0 0.00 0.67 0.62 89 1009.0
20260506112538 62 135 10.0 18.0 0.00 0.67 0.62 89 1009.0
20260506112039 62 145 12.0 18.0 0.00 0.67 0.62 90 1008.9
20260506111547 62 110 10.0 18.0 0.00 0.67 0.62 91 1009.0
20260506111037 61 123 10.0 15.0 0.00 0.67 0.62 90 1009.0
20260506110538 61 147 10.0 17.0 0.00 0.67 0.62 90 1009.1
20260506110046 61 147 9.0 18.0 0.00 0.67 0.62 91 1009.1
20260506105538 61 138 8.0 20.0 0.00 0.67 0.62 91 1009.2
20260506105041 61 134 13.0 20.0 0.00 0.67 0.62 91 1009.2
20260506104555 61 129 11.0 18.0 0.00 0.67 0.62 93 1009.3
20260506104037 60 84 10.0 17.0 0.00 0.67 0.62 93 1009.2
20260506103537 60 169 8.0 15.0 0.00 0.67 0.62 94 1009.2
20260506103046 60 102 9.0 17.0 0.03 0.67 0.62 94 1009.3
20260506102540 59 82 9.0 17.0 0.10 0.67 0.62 93 1009.3
20260506102036 59 116 9.0 18.0 0.15 0.67 0.62 93 1009.4
20260506101548 59 82 10.0 23.0 0.17 0.67 0.62 94 1009.3
20260506101037 59 144 12.0 23.0 0.18 0.67 0.62 94 1009.4
20260506100537 59 85 12.0 21.0 0.22 0.67 0.62 95 1009.5
20260506100047 59 76 12.0 21.0 0.26 0.67 0.62 96 1009.3
20260506095538 58 102 10.0 21.0 0.30 0.67 0.62 96 1009.1
20260506095040 58 105 10.0 18.0 0.29 0.66 0.61 96 1009.1
20260506094600 58 59 7.0 26.0 0.30 0.66 0.61 96 1009.1
20260506094037 57 126 15.0 26.0 0.31 0.66 0.61 95 1009.1
20260506093537 58 117 10.0 17.0 0.31 0.66 0.60 96 1009.1
20260506093047 57 72 10.0 17.0 0.29 0.63 0.58 96 1009.4
20260506092537 57 105 11.0 17.0 0.22 0.56 0.51 96 1009.4
20260506092037 57 113 8.0 13.0 0.18 0.51 0.46 96 1009.5
20260506091548 57 98 8.0 13.0 0.16 0.50 0.44 95 1009.6
20260506091037 57 143 4.0 9.0 0.16 0.49 0.44 95 1009.8
20260506090538 57 119 1.0 6.0 0.14 0.44 0.39 95 1010.0
20260506090047 57 234 2.0 6.0 0.10 0.40 0.35 95 1010.2
20260506085537 57 227 1.0 11.0 0.06 0.40 0.31 95 1010.0
20260506085039 57 58 5.0 12.0 0.06 0.40 0.31 95 1009.6
20260506084550 57 63 5.0 13.0 0.05 0.40 0.30 95 1009.4
20260506084038 57 112 7.0 16.0 0.04 0.39 0.29 95 1009.2
20260506083538 57 121 9.0 17.0 0.03 0.38 0.29 95 1009.2
20260506083057 57 142 10.0 17.0 0.03 0.38 0.29 96 1009.2
20260506082537 57 109 9.0 17.0 0.03 0.37 0.28 96 1009.3
20260506082037 57 100 10.0 19.0 0.03 0.37 0.28 96 1009.2
20260506081547 57 78 9.0 19.0 0.03 0.37 0.28 96 1009.0
20260506081038 57 82 7.0 14.0 0.02 0.37 0.27 96 1009.3
20260506080537 57 111 8.0 16.0 0.00 0.34 0.25 96 1009.5
20260506080106 57 106 8.0 20.0 0.00 0.34 0.25 95 1009.6
20260506073103 56 107 10.0 18.0 0.00 0.40 0.25 96 1009.4
20260506072541 56 120 10.0 18.0 0.00 0.40 0.25 96 1009.4
20260506072036 56 137 10.0 18.0 0.00 0.40 0.25 96 1009.4
20260506071553 56 109 11.0 18.0 0.01 0.40 0.25 96 1009.4
20260506071037 56 113 8.0 14.0 0.01 0.40 0.25 96 1009.3
20260506070537 56 63 6.0 14.0 0.01 0.40 0.25 96 1009.3
20260506062036 56 117 7.0 13.0 0.00 0.41 0.24 96 1009.9
20260506061545 56 135 8.0 13.0 0.00 0.40 0.23 96 1009.8
20260506061038 56 134 6.0 12.0 0.00 0.40 0.23 96 1009.9
20260506060537 55 144 6.0 12.0 0.00 0.40 0.23 96 1010.0
20260506051036 55 133 4.0 10.0 0.08 0.40 0.23 96 1009.8
20260506050537 55 104 4.0 9.0 0.11 0.40 0.23 96 1009.8
20260506045037 55 103 3.0 7.0 0.17 0.40 0.23 96 1010.1
20260506044551 55 79 2.0 5.0 0.17 0.40 0.22 95 1010.4
20260506044038 55 126 2.0 5.0 0.18 0.40 0.22 95 1010.7
20260506043537 55 176 1.0 5.0 0.19 0.40 0.22 95 1010.6
20260506043050 55 239 1.0 10.0 0.19 0.39 0.22 96 1010.2
20260506042538 55 119 4.0 10.0 0.17 0.37 0.19 96 1009.9
20260506042036 55 121 5.0 9.0 0.16 0.35 0.18 95 1009.6
20260506041554 55 117 4.0 9.0 0.16 0.34 0.17 95 1009.8
20260506041037 56 90 4.0 8.0 0.14 0.32 0.14 95 1010.2
20260506040538 56 130 4.0 7.0 0.11 0.29 0.12 95 1010.6
20260506040052 55 140 2.0 4.0 0.09 0.27 0.10 95 1010.6
20260506035538 55 0 1.0 4.0 0.07 0.25 0.08 95 1010.7
20260506035038 55 155 1.0 7.0 0.05 0.23 0.06 95 1010.7
20260506034552 55 134 2.0 7.0 0.04 0.22 0.05 95 1010.5
20260506034038 55 124 4.0 8.0 0.03 0.21 0.03 95 1010.4
20260506033538 56 137 4.0 8.0 0.02 0.20 0.03 95 1010.4
20260506033120 56 142 5.0 8.0 0.01 0.19 0.02 95 1010.5
20260506032538 56 136 5.0 9.0 0.00 0.18 0.01 94 1010.6
20260506032035 56 112 4.0 9.0 0.00 0.18 0.01 94 1010.5
20260506031547 56 146 4.0 7.0 0.00 0.18 0.00 94 1010.7
20260506031040 56 153 1.0 4.0 0.00 0.18 0.00 94 1010.6
20260506030537 56 92 2.0 4.0 0.00 0.18 0.00 94 1010.6
20260506030058 56 44 1.0 5.0 0.00 0.18 0.00 94 1010.6
20260506025537 56 70 3.0 5.0 0.00 0.18 0.00 94 1010.6
20260506025037 56 153 2.0 6.0 0.00 0.18 0.00 94 1010.7
20260506024607 56 105 3.0 6.0 0.00 0.18 0.00 94 1010.7
20260506024038 56 119 2.0 5.0 0.00 0.18 0.00 94 1010.8
20260506023536 56 93 1.0 7.0 0.00 0.18 0.00 94 1010.9
20260506023100 56 144 1.0 7.0 0.00 0.18 0.00 94 1011.1
20260506022537 56 114 3.0 7.0 0.00 0.18 0.00 94 1011.2
20260506022038 56 135 3.0 7.0 0.00 0.18 0.00 94 1011.4
20260506021557 56 111 4.0 7.0 0.00 0.18 0.00 94 1011.3
20260506021038 56 102 3.0 9.0 0.00 0.18 0.00 94 1011.4
20260506020535 56 92 5.0 9.0 0.00 0.18 0.00 94 1011.3
20260506020044 56 101 5.0 9.0 0.00 0.18 0.00 94 1011.3
20260506015535 56 114 4.0 11.0 0.00 0.18 0.00 94 1011.4
20260506015035 56 136 4.0 11.0 0.00 0.18 0.00 94 1011.5
20260506014547 56 111 4.0 9.0 0.00 0.18 0.00 94 1011.6
20260506014036 56 136 5.0 9.0 0.00 0.18 0.00 93 1011.5
20260506013537 56 134 5.0 10.0 0.00 0.18 0.00 93 1011.6
20260506013048 56 136 6.0 10.0 0.00 0.18 0.00 93 1011.5
20260506012537 56 132 5.0 9.0 0.00 0.18 0.00 93 1011.4
20260506012036 56 120 4.0 8.0 0.00 0.18 0.00 93 1011.6
20260506011609 56 123 4.0 7.0 0.00 0.18 0.00 93 1011.7
20260506011038 56 132 2.0 7.0 0.00 0.18 0.00 93 1011.7
20260506010538 56 126 3.0 7.0 0.00 0.18 0.00 93 1011.5
20260506005536 56 85 1.0 9.0 0.00 0.18 0.00 93 1011.6
20260506005040 56 74 5.0 9.0 0.00 0.18 0.00 93 1011.4
20260506004546 56 93 3.0 8.0 0.00 0.18 0.00 93 1011.5
20260506004035 56 79 2.0 8.0 0.00 0.18 0.00 93 1011.7
20260506003535 56 94 3.0 8.0 0.00 0.18 0.00 93 1011.7
20260506003047 56 138 4.0 9.0 0.00 0.18 0.00 93 1011.8
20260506002537 56 149 3.0 9.0 0.00 0.18 0.00 93 1011.9
20260506002035 57 128 4.0 9.0 0.00 0.18 0.00 93 1012.0
20260506001551 57 118 3.0 9.0 0.00 0.18 0.00 93 1012.0
20260506001036 57 130 3.0 9.0 0.00 0.18 0.00 93 1012.0
20260506000535 57 140 5.0 9.0 0.00 0.18 0.00 93 1012.1
20260506000054 57 132 3.0 7.0 0.00 0.18 0.00 93 1012.1
20260505235535 57 129 3.0 7.0 0.00 0.18 0.00 93 1012.3
20260505235036 57 136 2.0 7.0 0.00 0.18 0.00 93 1012.4
20260505234544 57 135 3.0 7.0 0.00 0.18 0.00 93 1012.5
20260505234038 57 135 4.0 7.0 0.00 0.18 0.00 93 1012.6
20260505233536 57 134 3.0 7.0 0.00 0.18 0.00 93 1012.6
20260505233042 57 125 3.0 5.0 0.00 0.18 0.00 93 1012.4
20260505232537 57 135 3.0 4.0 0.00 0.18 0.00 93 1012.5
20260505232039 57 117 2.0 4.0 0.00 0.18 0.00 93 1012.5
20260505231543 57 138 2.0 4.0 0.00 0.18 0.00 93 1012.5
20260505231036 57 132 1.0 2.0 0.00 0.18 0.00 93 1012.5
20260505230537 57 55 0.0 2.0 0.00 0.18 0.00 93 1012.5
20260505230045 57 0 0.0 3.0 0.00 0.18 0.00 92 1012.5
20260505225538 57 0 0.0 3.0 0.00 0.18 0.00 92 1012.5
20260505225038 57 48 1.0 3.0 0.00 0.18 0.00 92 1012.4
20260505224546 57 33 0.0 2.0 0.00 0.18 0.00 92 1012.4
20260505224039 57 0 0.0 2.0 0.00 0.18 0.00 92 1012.6
20260505223534 57 38 1.0 3.0 0.00 0.18 0.00 92 1012.4
20260505223045 57 0 0.0 3.0 0.00 0.18 0.00 92 1012.5
20260505222537 57 67 1.0 2.0 0.00 0.18 0.00 92 1012.5
20260505222037 57 92 0.0 2.0 0.00 0.18 0.00 92 1012.7
20260505221554 57 92 1.0 2.0 0.00 0.18 0.00 92 1012.7
20260505221037 57 0 0.0 2.0 0.00 0.17 0.00 91 1012.7
20260505220536 57 92 0.0 1.0 0.00 0.17 0.00 91 1012.8
20260505220055 57 0 0.0 2.0 0.00 0.17 0.00 91 1012.8
20260505215537 57 0 0.0 2.0 0.00 0.17 0.17 91 1012.8
20260505215035 57 92 0.0 2.0 0.00 0.17 0.17 91 1012.7
20260505214552 57 0 0.0 2.0 0.00 0.17 0.17 91 1012.8
20260505214038 58 0 0.0 3.0 0.00 0.17 0.17 91 1012.9
20260505213539 58 79 0.0 3.0 0.00 0.17 0.17 91 1012.9
20260505213048 58 80 1.0 3.0 0.00 0.17 0.17 91 1012.9
20260505212538 58 110 1.0 3.0 0.00 0.17 0.17 91 1013.0
20260505212038 58 119 1.0 3.0 0.00 0.17 0.17 91 1013.0
20260505211545 58 98 0.0 2.0 0.01 0.17 0.17 91 1013.2
20260505211037 58 0 0.0 2.0 0.03 0.17 0.17 91 1013.2
20260505210536 58 62 0.0 2.0 0.03 0.17 0.17 91 1013.3
20260505210051 58 0 0.0 2.0 0.03 0.17 0.17 90 1013.4
20260505205601 58 74 0.0 3.0 0.04 0.17 0.17 90 1013.3
20260505205039 58 58 0.0 4.0 0.05 0.17 0.17 90 1013.1
20260505204555 58 65 1.0 4.0 0.05 0.17 0.17 90 1013.1
20260505204035 58 39 1.0 4.0 0.05 0.17 0.17 90 1013.3
20260505203540 59 84 2.0 4.0 0.05 0.17 0.17 90 1013.3
20260505203049 59 86 1.0 4.0 0.05 0.17 0.17 90 1013.3
20260505202536 59 360 0.0 3.0 0.05 0.17 0.17 89 1013.4
20260505202038 59 360 1.0 3.0 0.04 0.16 0.16 89 1013.4
20260505201548 59 352 1.0 3.0 0.03 0.15 0.15 89 1013.4
20260505201036 59 29 0.0 2.0 0.02 0.14 0.14 89 1013.4
20260505200536 59 0 0.0 3.0 0.01 0.13 0.13 89 1013.4
20260505200046 59 0 1.0 3.0 0.01 0.13 0.13 88 1013.3
20260505195538 59 0 1.0 4.0 0.00 0.12 0.12 88 1013.2
20260505195038 59 86 1.0 7.0 0.00 0.11 0.11 88 1013.2
20260505194556 59 92 2.0 7.0 0.00 0.11 0.11 88 1013.1
20260505194040 59 89 4.0 7.0 0.00 0.11 0.11 88 1013.1
20260505193536 59 65 3.0 5.0 0.00 0.11 0.11 88 1013.0
20260505193047 59 76 3.0 5.0 0.00 0.11 0.11 88 1013.0
20260505192537 59 79 1.0 4.0 0.00 0.11 0.11 87 1013.1
20260505192036 59 82 2.0 7.0 0.00 0.11 0.11 87 1013.0
20260505191548 59 80 3.0 7.0 0.00 0.11 0.11 87 1013.0
20260505191037 59 99 1.0 6.0 0.00 0.11 0.11 88 1013.0
20260505190538 59 147 2.0 6.0 0.00 0.11 0.11 88 1013.0
20260505190046 59 88 1.0 3.0 0.00 0.11 0.11 88 1013.0
20260505185537 59 0 1.0 3.0 0.00 0.11 0.11 88 1013.0
20260505185041 59 111 1.0 4.0 0.00 0.11 0.11 88 1013.0
20260505184552 59 88 1.0 4.0 0.00 0.11 0.11 88 1012.8
20260505184038 59 139 2.0 6.0 0.00 0.11 0.11 88 1012.9
20260505183540 59 88 2.0 6.0 0.00 0.11 0.11 88 1012.9
20260505183054 59 80 1.0 7.0 0.00 0.11 0.11 88 1012.9
20260505182538 59 94 2.0 7.0 0.00 0.11 0.11 88 1012.9
20260505182038 59 89 2.0 6.0 0.00 0.11 0.11 88 1012.8
20260505181555 59 86 3.0 6.0 0.00 0.11 0.11 88 1012.8
20260505181037 59 109 2.0 6.0 0.00 0.11 0.11 88 1012.8
20260505180537 59 118 2.0 6.0 0.00 0.11 0.11 88 1012.9
20260505180053 59 138 2.0 6.0 0.00 0.11 0.11 88 1012.8
20260505175537 59 90 1.0 5.0 0.00 0.11 0.11 87 1012.9
20260505175038 59 103 2.0 5.0 0.00 0.11 0.11 87 1012.9
20260505174551 59 84 3.0 7.0 0.00 0.11 0.11 87 1012.8
20260505174038 59 62 2.0 7.0 0.00 0.11 0.11 87 1012.8
20260505173538 59 87 2.0 7.0 0.00 0.11 0.11 87 1012.9
20260505173047 59 74 2.0 8.0 0.00 0.11 0.11 87 1012.8
20260505172538 59 86 3.0 8.0 0.00 0.11 0.11 87 1012.8
20260505172037 59 69 5.0 8.0 0.00 0.11 0.11 87 1012.8
20260505171550 59 70 4.0 8.0 0.00 0.11 0.11 87 1012.8
20260505171037 59 90 4.0 9.0 0.00 0.11 0.11 87 1012.7
20260505170536 59 102 3.0 9.0 0.00 0.11 0.11 87 1012.8
20260505170051 59 78 3.0 9.0 0.00 0.11 0.11 87 1012.9
20260505165538 59 94 4.0 9.0 0.00 0.11 0.11 87 1012.8
20260505165038 59 99 4.0 9.0 0.00 0.11 0.11 88 1012.9
20260505164557 59 78 3.0 10.0 0.00 0.11 0.11 88 1012.8
20260505164038 59 96 4.0 10.0 0.00 0.11 0.11 88 1012.9
20260505163536 59 89 4.0 10.0 0.00 0.11 0.11 87 1012.9
20260505163048 59 89 6.0 10.0 0.00 0.11 0.11 87 1013.0
20260505162536 59 78 6.0 12.0 0.00 0.11 0.11 87 1013.0
20260505162036 60 51 7.0 12.0 0.00 0.11 0.11 87 1013.1
20260505161555 60 80 6.0 10.0 0.00 0.11 0.11 87 1013.1
20260505161038 60 77 5.0 9.0 0.00 0.11 0.11 87 1013.1
20260505160537 60 115 4.0 9.0 0.00 0.11 0.11 87 1013.0
20260505153050 59 81 5.0 9.0 0.00 0.11 0.11 88 1013.1
20260505152539 59 75 4.0 8.0 0.00 0.11 0.11 88 1013.1
20260505152036 59 139 4.0 8.0 0.00 0.11 0.11 88 1013.1
20260505151547 58 94 4.0 8.0 0.00 0.11 0.11 88 1013.2
20260505151039 58 123 3.0 9.0 0.00 0.11 0.11 88 1013.2
20260505150537 58 121 4.0 9.0 0.00 0.11 0.11 88 1013.3
20260505140542 58 116 5.0 10.0 0.00 0.11 0.11 89 1013.4
20260505125037 59 134 6.0 13.0 0.00 0.11 0.11 86 1013.6
20260505124550 59 94 5.0 13.0 0.00 0.11 0.11 86 1013.6
20260505124037 59 155 7.0 13.0 0.00 0.11 0.11 86 1013.5
20260505123537 60 128 5.0 11.0 0.00 0.11 0.11 86 1013.5
20260505123055 60 116 5.0 11.0 0.00 0.11 0.11 85 1013.6